Find Starlink 32004

NORAD ID: 60151 Int'l Des: 2024-120 Owner: SPXS Country: US Constellation: starlink operational
LEOCIRCULAR

現在のビュー

3D地球を読み込み中...

About Starlink 32004

Starlink 32004 (NORAD 60151) is a starlink constellation satellite (v2 mini) launched Jun 27, 2024 by SPXS of US. It operates in LEO, CIRCULAR orbit with a mass of 730.00 kg.

Starlink 32004について

説明を読み込み中...

次回通過

Passes for default location (London). Set your location on the main map for personalized predictions.

高度履歴

Loading altitude history...

軌道要素

1 60151U 24120S 26171.37379839 .00000292 00000-0 19781-4 0 9991
2 60151 53.1611 202.5355 0001146 81.5769 278.5363 15.34397569112181
Epoch: Jun 20, 2026 • Age: 26 hours

現在のステータス

高度 481.9 km
速度 7.62 km/s
衛星直下点 -53.07°S, 23.07°E
打ち上げ日 Jun 27, 2024
運用期間 1.9 years
タイプ internet

技術仕様

分類 Payload
質量 730.00 kg
乾燥質量 700.00 kg
総質量 730.00 kg
長さ 0.30 m
直径 4.10 m
スパン 29.00 m
形状 Box + pan
製造者 SPXS
バスタイプ Starlink V2M
フェーズステータス In Orbit
所有者/国 SPXS/US

Most Searched